{"data":{"norad_id":52358,"epoch":"2026-09-20T01:43:37.642080Z","epoch_age_seconds":96680,"freshness":"FRESH","line1":"1 52358U 22045AD  26263.07196345  .00001854  00000+0  66026-4 0  9991","line2":"2 52358  53.1583  37.3746 0001103  74.3551 285.7573 15.34388136245257","mean_motion":15.34388136,"eccentricity":0.0001103,"inclination_deg":53.1583,"raan_deg":37.3746,"arg_perigee_deg":74.3551,"mean_anomaly_deg":285.7573,"bstar":6.6026e-5,"rev_number":24525,"period_min":93.848483718985,"perigee_km":461.98395417459,"apogee_km":463.49305131049,"semimajor_km":6840.8755027425,"source":"CELESTRAK","updated_at":"2026-09-20T09:00:40.026052Z"}}